Tracking 18840 objects as of 18-November-2017
HD Live streaming from Space Station
objects crossing your sky now

DUMMY SAT

Track DUMMY SAT now!
10-day predictions
DUMMY SAT is classified as:


NORAD ID: 40073
Int'l Code: 2014-037E
Perigee: 631.4 km
Apogee: 637.9 km
Inclination: 98.4 °
Period: 97.3 minutes
Semi major axis: 7005 km
RCS: Unknown
Launch date: July 8, 2014
Source: Commonwealth of Independent States (former USSR) (CIS)
Launch site: TYURATAM MISSILE AND SPACE COMPLEX (TTMTR)
aabbcc
Your satellite tracking list
Your tracking list is empty




NASA's NSSDC Master Catalog

Two Line Element Set (TLE):
1 40073U 14037E   17322.18317386  .00000033  00000-0  11816-4 0  9998
2 40073  98.3527  79.0450 0004654 285.3256  74.7440 14.80564083181730
Source of the keplerian elements: AFSPC